Location: Alpha Ridge Park
(39.3209°N, 76.9128°W)
Time: 15:41:02
(UTC-04:00)

Explorer 11/Cluster Stage 4 - All Passes

Search period start: 22 May 2019 00:00
Search period end: 01 June 2019 00:00
Orbit: 467 x 1260 km, 28.8° (Epoch: 21 May)

Date Brightness Start Highest point End Pass type
(mag) Time Alt. Az. Time Alt. Az. Time Alt. Az.
22 May - 04:57:15 10° SSW 04:59:41 14° S 05:01:57 10° SE visible
22 May - 06:44:43 10° SW 06:47:24 17° S 06:49:54 10° SE daylight
22 May - 08:33:50 10° SSW 08:34:57 11° SSW 08:36:04 10° S daylight
23 May - 04:46:07 10° SSW 04:49:08 17° S 04:51:51 10° SE visible
23 May - 06:34:02 10° SW 06:36:51 18° S 06:39:28 10° SE daylight
24 May - 02:48:58 10° S 02:50:39 11° SSE 02:52:15 10° SE visible
24 May - 04:35:03 10° SW 04:38:34 19° S 04:41:39 10° SE visible
24 May - 06:23:20 10° SW 06:26:18 18° S 06:29:02 10° SE daylight
25 May - 02:37:02 10° SSW 02:40:01 14° SSE 02:42:44 10° SE visible
25 May - 04:24:03 10° SW 04:28:00 21° S 04:31:24 10° SE visible
25 May - 06:12:37 10° SW 06:15:46 19° S 06:18:34 10° SE daylight
26 May - 02:25:30 10° SSW 02:29:23 17° SSE 02:32:48 10° SE visible
26 May - 04:13:03 10° SW 04:17:24 23° S 04:21:06 10° SE visible
26 May - 06:01:54 10° WSW 06:05:11 19° SSW 06:08:06 10° SSE daylight
27 May - 02:14:08 10° SSW 02:18:42 20° SSE 02:22:42 10° ESE visible
27 May - 04:02:06 10° SW 04:06:48 25° S 04:10:46 10° SE visible
27 May - 05:51:11 10° WSW 05:54:35 19° SSW 05:57:35 10° SSE daylight
28 May - 00:17:32 10° S 00:19:48 12° SSE 00:21:58 10° SE night (unlit)
28 May - 02:02:52 10° SW 02:08:02 23° SSE 02:12:28 10° ESE visible
28 May - 03:51:08 10° WSW 03:56:10 27° S 04:00:23 10° SE visible
28 May - 05:40:27 10° WSW 05:43:58 18° SSW 05:47:03 10° SSE daylight
29 May - 00:05:21 10° S 00:09:02 14° SSE 00:12:29 10° SE night (unlit)
29 May - 01:51:40 10° SW 01:57:19 25° S 02:02:10 10° ESE visible
29 May - 03:40:11 10° WSW 03:45:31 28° S 03:49:58 10° SE visible
29 May - 05:29:44 10° WSW 05:33:20 18° SSW 05:36:29 10° SSE daylight
29 May - 23:53:37 10° SSW 23:58:15 17° SSE 00:02:31 10° ESE night (unlit)
30 May - 01:40:31 10° SW 01:46:36 28° S 01:51:48 10° ESE visible
30 May - 03:29:14 10° WSW 03:34:51 30° S 03:39:32 10° SE visible
30 May - 05:19:01 10° WSW 05:22:40 18° SSW 05:25:52 10° SSE daylight
30 May - 23:42:06 10° SSW 23:47:26 20° SSE 23:52:22 10° ESE night (unlit)
31 May - 01:29:24 10° SW 01:35:51 31° S 01:41:23 10° ESE visible
31 May - 03:18:18 10° WSW 03:24:10 30° S 03:29:03 10° SE visible
31 May - 05:08:18 10° WSW 05:11:58 17° SSW 05:15:12 10° SSE visible
31 May - 23:30:44 10° SSW 23:36:36 22° SSE 23:42:03 10° ESE night (unlit)
